Wind_Speed
9 9 9 9 9 9 9 9 9 9 9 9 9 8 8 7 7 6 6 6 7 7 8 8 9 9 9 9 9 9 9 9 9 9 9 9 9 9 9 9 9 9 9
9 9 9 9 9 9 9 9 9 9 9 9 9 9 8 8 7 7 7 7 7 7 8 8 9 9 9 10 9 9 9 9 9 9 9 9 9 10 10 10 10 9 8
9 9 9 9 9 9 9 9 9 9 9 9 9 9 8 8 8 8 8 8 7 8 8 8 8 9 9 10 10 10 10 9 9 9 9 9 9 10 10 9 10 9 9
9 9 9 9 9 9 9 9 9 9 8 8 8 8 8 9 9 8 8 8 8 9 9 9 9 10 10 10 10 10 10 10 10 10 9 9 10 9 10 9 9 9 8
9 9 10 10 9 9 9 9 9 9 8 8 9 9 9 9 10 9 9 10 10 10 10 10 10 10 10 10 10 11 11 10 10 10 10 11 10 10 10 10 10 9 9
10 10 10 10 10 10 10 10 10 10 9 9 10 10 10 10 11 10 11 11 11 12 11 11 10 10 9 10 11 11 11 11 10 11 10 11 11 10 10 10 10 10 10
11 11 11 11 11 10 11 11 10 10 10 10 10 11 11 11 12 12 12 13 13 13 12 12 11 10 10 11 11 11 11 11 11 11 11 10 11 11 10 10 10 10 10
12 12 12 11 11 11 11 11 10 10 11 11 12 12 12 12 13 13 13 13 13 13 13 12 12 11 11 11 11 11 11 12 12 12 11 11 11 11 10 10 10 11 12
12 12 13 13 12 12 11 12 12 12 12 12 13 13 13 13 13 14 14 14 14 13 13 13 14 13 13 12 12 12 12 12 12 12 11 11 11 10 10 10 11 12 12
13 13 13 14 14 14 13 13 13 14 14 14 15 15 15 15 14 14 14 14 14 14 14 14 13 13 14 14 14 14 13 13 13 12 12 11 11 11 11 11 11 12 12
14 14 14 14 14 14 14 14 15 15 15 15 15 15 16 16 16 16 15 15 15 15 15 14 15 15 15 15 14 14 14 14 13 13 13 12 12 12 13 13 12 13 13
16 16 16 16 16 16 16 16 16 16 16 17 17 17 17 17 17 17 16 16 16 16 16 16 16 16 15 15 14 14 15 14 14 14 14 14 14 14 14 13 13 13 13
18 18 18 18 18 18 18 17 17 18 18 18 18 18 18 18 19 18 18 17 17 17 17 17 17 17 17 16 16 15 16 15 15 15 15 15 15 15 15 14 14 15 15
20 20 20 20 19 19 19 19 19 19 19 19 19 19 19 20 20 19 19 19 18 18 19 19 19 19 19 18 18 17 17 17 17 16 16 16 16 16 16 17 16 16 16
22 22 22 22 22 21 22 22 21 21 21 21 21 22 21 21 21 21 21 21 20 20 20 21 21 21 21 20 20 19 19 18 17 17 17 17 17 18 17 18 18 18 17
24 24 25 25 24 24 23 23 23 23 23 23 23 23 23 23 23 23 22 22 22 22 22 22 22 23 23 22 22 21 21 20 19 19 18 19 19 19 18 19 19 19 19
26 26 26 26 26 25 25 25 25 24 24 24 25 25 25 25 26 25 25 24 24 24 24 24 24 24 24 24 23 23 23 21 21 21 20 20 19 19 19 20 20 20 20
27 27 27 27 27 27 27 26 26 26 27 27 27 27 27 27 27 27 27 27 27 27 26 26 26 26 26 25 25 24 24 24 23 23 23 22 21 21 21 21 21 21 21
28 28 28 29 29 29 29 28 28 28 29 28 29 29 29 29 29 29 29 28 28 28 28 28 27 27 27 27 26 26 26 26 26 25 25 24 24 23 22 22 21 22 22
29 30 30 30 29 30 30 31 30 30 30 30 30 30 30 29 29 29 29 29 29 29 29 28 28 27 28 28 27 27 27 27 27 27 27 26 26 25 24 24 23 23 23
30 31 31 31 31 31 32 32 32 32 32 32 32 31 31 30 30 30 29 30 30 29 29 29 28 28 29 29 29 28 28 28 28 28 28 27 26 26 26 25 25 24 24
32 32 32 32 32 33 33 33 34 34 34 33 33 32 33 32 31 31 31 31 30 30 30 29 29 29 29 30 30 29 29 29 29 29 28 28 28 28 28 27 26 26 25
33 33 33 33 33 34 34 34 35 36 35 34 34 33 33 33 32 32 32 32 32 31 31 30 30 29 29 30 30 30 30 30 30 30 30 29 29 30 30 29 29 28 28
34 33 33 33 33 34 35 35 34 35 35 34 34 33 33 34 33 33 33 33 33 32 32 32 31 30 30 30 31 31 31 30 30 30 31 30 30 30 30 30 29 29 29
33 32 33 34 34 35 35 35 36 36 35 35 34 34 33 33 33 33 34 34 33 33 33 33 33 32 31 31 32 31 30 31 31 30 31 31 31 31 31 31 31 31 30
34 34 34 34 35 35 35 36 36 36 36 35 35 35 34 34 34 34 35 35 35 34 34 34 34 33 32 32 32 32 31 32 32 32 32 32 32 32 32 31 31 31 31
Wind_Direction
299 293 290 293 292 295 297 297 299 299 300 300 302 300 297 295 295 295 297 294 292 286 283 280 277 273 271 271 272 273 273 274 274 271 269 269 267 265 266 268 266 266 267
302 297 297 295 295 297 297 296 296 296 297 297 295 297 298 299 296 295 293 293 289 290 288 285 283 283 283 282 281 282 279 277 276 273 272 272 273 272 269 267 264 263 262
305 301 300 300 302 303 303 301 297 297 297 296 292 292 294 295 296 297 295 289 288 286 286 284 283 283 284 286 285 281 281 280 279 277 275 276 275 275 271 265 261 259 258
297 298 299 301 301 303 306 306 303 301 298 298 294 290 291 294 293 294 291 289 291 291 290 288 288 286 285 286 287 285 284 280 276 277 276 273 274 273 269 263 258 256 256
293 292 294 296 299 301 302 304 305 302 299 296 294 295 293 296 296 294 291 289 290 291 287 286 287 286 284 283 283 282 281 277 277 277 278 273 272 270 267 260 252 251 253
292 290 289 290 292 296 300 302 302 298 295 294 293 294 294 297 296 295 293 291 289 288 286 285 284 284 282 279 280 278 276 274 275 274 278 274 268 265 262 256 253 251 251
295 295 292 290 290 294 297 297 296 293 291 293 293 292 292 292 292 293 293 292 289 284 280 281 282 280 280 280 281 278 275 275 276 277 276 275 268 262 258 254 253 253 252
296 297 293 289 289 291 293 294 293 292 292 293 292 291 291 290 290 290 290 290 288 284 277 275 277 276 277 276 276 275 274 275 278 278 277 275 267 261 255 256 255 255 254
292 295 294 290 289 289 290 291 291 290 291 291 290 290 288 287 287 288 289 288 286 283 281 277 275 272 274 274 276 277 277 281 279 278 276 274 268 260 257 259 258 257 256
291 291 292 292 291 289 287 288 290 289 291 292 291 289 287 285 284 285 284 283 283 282 283 281 277 274 274 280 281 284 283 281 278 276 273 271 268 258 258 259 261 260 258
289 289 289 289 290 290 289 289 290 289 290 291 291 289 286 285 284 283 281 278 279 280 281 281 278 278 281 281 281 282 282 280 277 275 271 268 265 259 260 261 262 260 260
287 287 287 286 286 286 286 287 288 289 290 290 290 290 287 285 284 282 279 277 277 278 279 278 277 277 278 281 281 280 279 276 275 273 269 266 263 262 263 260 259 259 260
284 284 284 285 284 284 284 284 286 287 289 290 288 287 287 285 284 281 280 277 275 276 276 276 275 275 276 279 279 280 278 274 272 271 268 266 264 264 264 263 261 261 261
280 279 280 281 282 282 283 284 284 285 286 287 287 287 286 285 283 280 279 277 274 274 274 274 274 272 273 275 276 276 275 272 270 267 265 266 266 266 265 264 264 263 262
278 277 278 279 281 281 282 282 283 284 285 286 286 286 286 284 282 279 277 277 277 275 273 273 273 272 271 272 273 272 271 271 269 268 265 265 268 267 267 265 265 263 262
278 278 277 277 278 279 279 281 281 282 284 285 285 285 284 282 280 279 278 278 277 276 275 273 273 271 270 270 270 270 269 268 269 266 268 268 269 268 266 265 266 264 263
278 279 278 276 277 278 279 279 280 280 282 283 285 284 282 281 279 277 277 277 277 275 274 273 273 272 271 270 270 269 267 266 266 265 267 269 270 268 265 264 263 263 263
280 279 277 277 277 276 277 277 278 279 281 282 283 283 281 280 279 278 277 277 277 276 274 273 272 273 273 271 270 268 267 265 264 264 265 267 268 269 268 266 262 263 263
282 281 279 278 277 276 275 276 277 279 281 282 282 282 280 279 279 279 277 278 277 276 274 272 271 270 271 271 269 268 267 266 265 264 263 264 264 266 267 267 265 263 264
281 280 280 279 277 276 275 276 277 278 280 280 282 282 280 279 279 278 276 276 276 276 274 272 271 270 270 270 269 268 267 267 267 265 264 264 262 262 264 265 264 263 264
281 280 279 278 278 277 276 276 277 277 279 280 281 280 279 278 277 276 275 275 275 275 275 273 272 270 270 270 269 268 266 267 267 265 266 265 263 261 261 264 264 264 264
282 280 278 278 278 278 277 277 277 278 279 279 280 279 278 278 276 274 275 275 274 274 273 273 272 271 269 268 268 268 266 266 266 265 266 264 262 260 261 263 263 263 264
284 282 278 278 278 278 278 279 278 278 279 279 277 276 276 276 275 274 274 274 274 273 272 272 272 270 269 268 268 268 266 266 264 264 264 263 261 260 260 260 261 262 262
282 281 280 279 278 279 279 279 278 278 278 278 277 276 275 274 274 274 274 274 274 273 272 271 271 270 268 268 268 268 266 265 264 263 263 262 260 260 260 261 261 261 262
284 283 282 281 280 280 280 280 278 278 277 276 276 275 275 274 274 274 274 274 273 271 270 270 270 269 268 268 267 268 267 264 263 263 264 263 262 261 260 261 262 262 262
284 284 283 282 282 282 282 281 280 279 278 276 276 275 273 274 273 273 273 273 272 271 269 268 267 268 267 267 266 267 267 266 264 263 263 262 262 261 260 260 261 262 262
Height
5855 5854 5853 5853 5852 5851 5851 5850 5849 5848 5847 5847 5846 5845 5844 5843 5843 5842 5841 5840 5839 5839 5838 5838 5838 5837 5837 5836 5836 5835 5835 5834 5834 5833 5833 5833 5833 5833 5833 5833 5833 5833 5833
5853 5852 5851 5851 5850 5849 5849 5848 5847 5846 5846 5845 5844 5843 5842 5841 5841 5840 5839 5838 5838 5837 5837 5836 5836 5835 5834 5834 5833 5833 5832 5832 5832 5831 5831 5831 5831 5831 5830 5830 5830 5830 5830
5851 5850 5849 5849 5848 5847 5847 5846 5845 5844 5844 5843 5842 5841 5840 5839 5838 5838 5837 5837 5836 5835 5835 5834 5834 5833 5832 5832 5831 5831 5830 5830 5829 5829 5828 5828 5828 5828 5828 5828 5828 5828 5828
5849 5848 5847 5847 5846 5845 5845 5844 5843 5842 5841 5841 5840 5839 5838 5837 5836 5836 5835 5834 5834 5833 5833 5832 5831 5831 5830 5829 5829 5828 5827 5827 5826 5826 5826 5825 5825 5825 5825 5825 5825 5825 5825
5847 5846 5846 5845 5844 5843 5843 5842 5841 5840 5839 5838 5838 5837 5836 5835 5834 5834 5833 5832 5831 5831 5830 5829 5829 5828 5827 5827 5826 5825 5825 5824 5823 5823 5823 5822 5822 5822 5822 5822 5822 5822 5823
5844 5844 5843 5843 5842 5841 5840 5839 5838 5837 5837 5836 5835 5834 5834 5833 5832 5831 5830 5829 5829 5828 5827 5826 5826 5825 5824 5824 5823 5822 5822 5821 5820 5820 5819 5819 5819 5819 5819 5819 5819 5819 5820
5842 5842 5841 5840 5839 5838 5837 5837 5836 5835 5834 5833 5833 5832 5831 5830 5829 5828 5827 5826 5826 5825 5824 5823 5823 5822 5821 5821 5820 5819 5819 5818 5817 5816 5816 5816 5815 5815 5815 5816 5816 5816 5817
5840 5839 5838 5838 5837 5836 5835 5834 5833 5832 5831 5831 5830 5829 5828 5827 5826 5825 5824 5823 5822 5821 5821 5820 5819 5819 5818 5817 5817 5816 5815 5815 5814 5813 5812 5812 5812 5812 5812 5813 5813 5813 5814
5837 5836 5835 5835 5834 5833 5832 5831 5830 5829 5828 5827 5826 5826 5825 5824 5823 5822 5820 5819 5818 5818 5817 5816 5816 5815 5814 5814 5813 5812 5812 5811 5810 5809 5809 5809 5809 5809 5809 5809 5810 5810 5810
5833 5833 5832 5831 5830 5830 5829 5828 5827 5826 5825 5824 5823 5822 5821 5820 5819 5818 5817 5815 5814 5814 5813 5812 5812 5811 5810 5810 5809 5808 5807 5807 5806 5806 5805 5805 5805 5805 5805 5806 5806 5806 5807
5829 5829 5828 5827 5826 5826 5825 5824 5823 5822 5821 5820 5818 5817 5816 5815 5814 5813 5812 5812 5810 5809 5809 5808 5807 5807 5806 5805 5805 5804 5803 5802 5802 5802 5801 5801 5801 5801 5801 5801 5802 5802 5803
5825 5824 5823 5823 5822 5821 5820 5820 5818 5817 5816 5815 5814 5812 5811 5810 5809 5808 5807 5806 5806 5805 5804 5803 5803 5802 5801 5801 5800 5800 5799 5798 5798 5798 5797 5797 5797 5797 5797 5798 5798 5798 5799
5820 5820 5819 5818 5817 5816 5815 5814 5813 5812 5811 5810 5809 5807 5806 5804 5803 5802 5802 5801 5800 5800 5799 5798 5797 5797 5796 5796 5796 5795 5794 5794 5793 5793 5793 5793 5793 5793 5793 5794 5794 5794 5795
5815 5814 5813 5812 5811 5811 5810 5809 5808 5807 5806 5804 5803 5801 5800 5798 5797 5796 5796 5795 5795 5794 5793 5793 5792 5791 5791 5791 5790 5790 5789 5789 5788 5788 5788 5789 5789 5789 5789 5789 5789 5790 5790
5808 5807 5806 5806 5805 5804 5804 5803 5802 5801 5799 5798 5796 5795 5793 5792 5790 5790 5789 5788 5788 5788 5787 5786 5786 5785 5785 5785 5785 5784 5784 5783 5783 5783 5783 5784 5784 5784 5784 5784 5784 5785 5785
5801 5800 5799 5799 5798 5797 5796 5796 5795 5794 5792 5791 5790 5788 5787 5785 5784 5783 5782 5782 5781 5781 5780 5780 5779 5779 5778 5778 5778 5778 5778 5778 5778 5778 5778 5778 5778 5778 5778 5779 5779 5779 5780
5794 5793 5792 5791 5790 5790 5789 5788 5787 5786 5785 5784 5782 5781 5779 5778 5777 5776 5775 5774 5774 5773 5773 5772 5772 5771 5771 5771 5771 5771 5771 5771 5772 5772 5772 5772 5772 5772 5772 5773 5773 5773 5774
5786 5785 5784 5783 5782 5782 5781 5780 5779 5778 5777 5776 5774 5772 5771 5769 5768 5768 5767 5766 5766 5765 5765 5764 5764 5763 5763 5763 5764 5764 5764 5764 5765 5765 5766 5766 5766 5766 5766 5766 5767 5767 5768
5778 5777 5776 5775 5774 5773 5772 5771 5771 5770 5768 5767 5765 5764 5762 5761 5759 5759 5758 5757 5757 5756 5756 5755 5755 5755 5754 5755 5755 5756 5756 5757 5757 5758 5758 5759 5759 5760 5760 5760 5760 5761 5761
5770 5769 5767 5766 5765 5764 5763 5763 5762 5761 5759 5758 5756 5755 5753 5751 5750 5750 5749 5748 5748 5747 5746 5746 5746 5746 5746 5746 5746 5747 5748 5748 5749 5750 5750 5751 5752 5752 5753 5753 5754 5754 5755
5761 5759 5758 5757 5755 5754 5754 5753 5752 5751 5750 5748 5746 5745 5744 5742 5741 5741 5740 5739 5739 5738 5737 5737 5737 5737 5737 5737 5738 5738 5739 5739 5740 5741 5742 5743 5744 5745 5745 5746 5746 5747 5747
5751 5750 5748 5747 5746 5744 5743 5742 5742 5741 5739 5738 5736 5735 5734 5733 5732 5731 5730 5730 5729 5729 5728 5728 5728 5728 5728 5728 5728 5729 5730 5731 5732 5732 5733 5734 5735 5736 5737 5738 5738 5739 5740
5742 5740 5738 5737 5736 5734 5733 5732 5730 5730 5728 5727 5725 5724 5723 5722 5722 5721 5721 5720 5720 5719 5719 5719 5719 5718 5718 5718 5719 5720 5720 5721 5722 5723 5724 5725 5726 5727 5728 5730 5730 5731 5732
5732 5730 5728 5726 5725 5724 5722 5721 5719 5718 5717 5716 5714 5713 5713 5712 5712 5711 5711 5710 5710 5710 5709 5709 5709 5709 5709 5709 5709 5710 5711 5712 5713 5713 5714 5716 5717 5718 5719 5720 5721 5722 5723
5721 5719 5717 5716 5714 5713 5711 5709 5708 5707 5706 5705 5704 5703 5702 5701 5701 5700 5700 5700 5699 5699 5699 5699 5699 5699 5699 5699 5700 5700 5701 5701 5703 5704 5704 5705 5707 5708 5709 5711 5712 5713 5714
5710 5709 5707 5705 5703 5702 5700 5698 5696 5695 5695 5694 5693 5692 5691 5690 5690 5689 5689 5689 5688 5688 5688 5688 5688 5689 5689 5689 5690 5690 5691 5691 5692 5694 5695 5695 5697 5698 5699 5701 5702 5703 5704